FW7588 Weather Reports


Display with metric or nautical units.
time (UTC)temp
F
wind
direction
speed
MPH
gust
MPH
rain 1hr
in
rain 24hr
in
rain mn
in
humidity
%
barometer
mb
20220525184553 80 316 0.0 0.0 0.00 0.70 0.41 41 979.9
20220525183019 80 317 0.0 0.0 0.00 0.70 0.41 47 979.9
20220525181551 80 297 0.0 0.0 0.00 0.70 0.41 45 979.9
20220525180011 78 357 0.0 0.0 0.00 0.70 0.41 48 979.9
20220525174530 78 335 0.0 0.0 0.00 0.70 0.41 47 979.9
20220525173056 78 266 0.0 0.0 0.00 0.70 0.41 47 979.9
20220525171531 77 314 0.0 0.0 0.00 0.70 0.41 52 980.0
20220525170033 76 302 0.0 0.0 0.00 0.70 0.41 54 979.8
20220525164601 75 314 0.0 0.0 0.00 0.70 0.41 54 979.6
20220525163028 74 307 0.0 0.0 0.00 0.70 0.41 58 979.6
20220525161541 73 338 0.0 0.0 0.00 0.70 0.41 63 979.5
20220525160013 71 325 0.0 0.0 0.00 0.70 0.41 62 979.6
20220525154534 70 252 0.0 0.0 0.00 0.70 0.41 65 979.6
20220525153101 69 323 0.0 0.0 0.00 0.70 0.41 66 979.5
20220525151510 68 79 0.0 0.0 0.00 0.70 0.41 67 979.6
20220525150040 67 262 0.0 0.0 0.00 0.70 0.41 65 979.4
20220525144547 65 319 0.0 0.0 0.00 0.70 0.41 63 979.6
20220525143010 64 318 0.0 0.0 0.00 0.70 0.41 60 979.7
20220525141534 63 19 0.0 0.0 0.00 0.70 0.41 44 979.6
20220525140052 62 311 0.0 0.0 0.00 0.70 0.41 32 979.4
20220525134515 62 311 0.0 0.0 0.00 0.70 0.41 1 979.2
20220525133048 61 322 0.0 0.0 0.00 0.70 0.41 1 979.0
20220525131513 61 333 0.0 0.0 0.00 0.70 0.41 1 978.6
20220525130050 61 315 0.0 0.0 0.00 0.70 0.41 1 978.6
20220525124533 61 334 0.0 0.0 0.00 0.70 0.41 1 978.2
20220525123044 61 315 0.0 0.0 0.00 0.70 0.41 1 978.1
20220525121521 61 315 0.0 0.0 0.00 0.70 0.41 1 978.1
20220525120054 61 315 0.0 0.0 0.00 0.70 0.41 1 977.9
20220525114515 62 315 0.0 0.0 0.00 0.70 0.41 1 977.6
20220525113049 62 315 0.0 0.0 0.00 0.70 0.41 1 977.3
20220525111517 62 307 0.0 0.0 0.00 0.70 0.41 1 977.4
20220525110046 62 285 0.0 0.0 0.00 0.70 0.41 1 977.5
20220525104517 62 235 0.0 0.0 0.00 0.70 0.41 1 977.5
20220525103102 62 162 0.0 0.0 0.00 0.70 0.41 1 977.9
20220525101521 62 260 0.0 0.0 0.00 0.70 0.41 1 977.9
20220525100045 62 301 0.0 0.0 0.00 0.70 0.41 1 977.8
20220525094507 62 228 0.0 0.0 0.00 0.70 0.41 1 977.0
20220525093047 62 330 0.0 0.0 0.00 0.70 0.41 1 976.1
20220525091503 62 13 0.0 0.0 0.01 0.70 0.41 1 975.6
20220525090032 62 82 0.0 0.0 0.01 0.70 0.41 1 975.2
20220525084504 62 44 0.0 0.0 0.01 0.70 0.41 1 975.4
20220525083054 62 86 0.0 0.0 0.01 0.70 0.41 1 974.6
20220525081606 62 163 0.0 0.0 0.00 0.69 0.40 1 976.3
20220525080037 62 162 0.0 0.0 0.00 0.69 0.40 1 975.6
20220525074514 62 158 0.0 0.0 0.01 0.69 0.40 1 976.1
20220525073041 62 78 0.0 0.0 0.01 0.69 0.40 1 975.4
20220525071611 62 198 0.0 0.0 0.01 0.69 0.40 1 973.7
20220525070033 61 57 0.0 0.0 0.02 0.69 0.40 1 972.9
20220525064502 62 46 0.0 0.0 0.04 0.68 0.39 1 973.8
20220525063028 62 56 0.0 0.0 0.08 0.68 0.39 1 976.0
20220525061548 62 67 0.0 0.0 0.12 0.68 0.39 1 976.3
20220525060120 61 15 0.0 0.0 0.35 0.67 0.38 1 977.1
20220525054523 62 356 0.0 0.0 0.64 0.64 0.35 1 979.1
20220525053047 62 334 0.0 0.0 0.60 0.60 0.31 1 978.5
20220525051510 62 350 0.0 0.0 0.55 0.55 0.26 1 978.1
20220525050029 64 5 0.0 0.0 0.28 0.28 0.28 1 978.3
20220525044547 72 300 0.0 2.0 0.00 0.00 0.00 66 977.7
20220525043006 80 41 0.0 0.0 0.00 0.00 0.00 64 974.6
20220525041538 80 90 0.0 0.0 0.00 0.00 0.00 64 973.6
20220525040108 80 89 0.0 0.0 0.00 0.00 0.00 65 972.5
20220525034529 81 106 0.0 0.0 0.00 0.00 0.00 65 972.1
20220525033103 81 65 0.0 0.0 0.00 0.00 0.00 65 971.9
20220525031533 81 139 0.0 0.0 0.00 0.00 0.00 65 971.5
20220525030011 81 157 0.0 0.0 0.00 0.00 0.00 64 971.1
20220525024526 82 87 0.0 0.0 0.00 0.00 0.00 63 970.9
20220525023104 82 84 0.0 0.0 0.00 0.00 0.00 62 970.1
20220525021528 82 133 0.0 0.0 0.00 0.00 0.00 60 970.7
20220525020052 83 269 0.0 0.0 0.00 0.00 0.00 59 970.9
20220525014524 83 126 0.0 0.0 0.00 0.01 0.00 57 970.9
20220525013057 84 125 0.0 0.0 0.00 0.01 0.00 57 970.8
20220525011528 84 156 0.0 0.0 0.00 0.01 0.00 57 970.9
20220525010052 84 172 0.0 0.0 0.00 0.01 0.00 57 970.5
20220525004527 84 127 0.0 0.0 0.00 0.01 0.00 57 970.4
20220525003059 84 133 0.0 0.0 0.00 0.01 0.00 57 970.1
20220525001526 84 126 0.0 0.0 0.00 0.01 0.00 57 970.4
20220525000053 84 159 0.0 0.0 0.00 0.01 0.00 57 970.7
20220524234516 85 148 0.0 0.0 0.00 0.02 0.00 57 970.6
20220524233047 85 162 0.0 0.0 0.00 0.02 0.00 57 971.2
20220524231521 85 152 0.0 0.0 0.00 0.02 0.00 57 971.0
20220524230047 85 155 0.0 0.0 0.00 0.02 0.00 57 971.4
20220524224614 84 76 0.0 0.0 0.00 0.03 0.00 57 971.7
20220524223027 85 129 0.0 0.0 0.00 0.03 0.00 56 971.7
20220524221603 86 107 0.0 0.0 0.00 0.03 0.00 54 971.8
20220524220029 86 142 0.0 0.0 0.00 0.06 0.00 54 971.7
20220524214556 87 132 0.0 0.0 0.00 0.06 0.00 49 972.1
20220524213010 88 133 0.0 0.0 0.00 0.06 0.00 49 972.3
20220524211553 88 148 0.0 0.0 0.00 0.06 0.00 49 972.4
20220524210104 87 131 0.0 0.0 0.00 0.06 0.00 50 972.8
20220524204632 87 143 0.0 0.0 0.00 0.06 0.00 50 972.9
20220524203045 87 64 0.0 0.0 0.00 0.06 0.00 52 973.1
20220524201507 86 91 0.0 0.0 0.00 0.06 0.00 52 973.4
20220524200029 86 127 0.0 0.0 0.00 0.06 0.00 54 973.7
20220524194555 85 162 0.0 0.0 0.00 0.06 0.00 53 974.0
20220524193028 84 132 0.0 0.0 0.00 0.06 0.00 55 974.2
20220524191537 83 174 0.0 0.0 0.00 0.06 0.00 55 974.4
20220524190050 83 174 0.0 0.0 0.00 0.06 0.00 57 974.7